Theta_e
352 351 351 352 354 356 358 360 361 361 360 358 357 356 356 354 354 354 354 354 353 352 351 350 351 352 351 350 351 351 351 352 350 350 350 350 349 348 347 346 345 343 343
353 353 353 354 354 357 359 361 362 362 360 360 358 357 356 355 356 356 355 355 355 354 354 353 353 350 348 347 350 351 352 352 351 350 350 352 348 349 347 348 347 346 345
352 354 355 355 355 357 360 361 363 363 362 361 360 359 358 358 356 356 355 355 356 356 353 354 352 353 351 349 349 348 350 352 351 352 350 354 352 347 345 346 346 346 346
350 352 353 355 354 355 357 361 363 363 363 362 359 359 359 358 354 353 353 355 353 351 353 353 353 353 354 352 351 353 351 348 349 349 352 350 350 352 350 344 345 346 347
346 348 349 351 350 349 352 357 362 364 363 363 362 360 359 354 351 349 350 351 350 353 355 354 353 354 354 353 353 353 353 353 351 349 348 350 351 352 352 353 347 344 347
345 345 344 346 347 348 349 353 361 363 364 363 363 361 360 358 354 349 345 338 334 333 332 336 340 345 351 350 351 351 351 351 353 354 353 348 349 350 353 354 353 350 346
345 346 346 346 348 347 348 351 359 365 363 362 360 359 355 350 346 343 339 340 335 332 333 338 340 341 341 342 343 345 349 351 351 352 353 353 350 348 350 351 352 350 349
347 347 348 347 347 347 348 352 361 362 357 352 351 349 347 342 340 339 340 337 335 336 336 338 339 340 341 341 341 341 342 345 348 351 351 352 351 353 349 350 352 354 350
349 350 349 347 346 348 353 352 355 352 350 349 347 345 343 342 339 339 338 335 335 334 334 337 338 338 339 339 340 339 340 342 344 346 348 350 352 351 352 351 347 353 356
350 350 350 346 348 350 351 348 350 350 348 345 343 340 340 338 337 337 336 334 334 335 337 337 338 338 338 338 338 338 338 340 340 342 344 346 348 350 350 351 350 347 351
352 351 350 347 349 350 349 346 347 348 345 342 340 338 337 336 335 334 333 333 334 335 336 336 336 336 336 336 337 337 338 338 338 339 341 343 344 347 349 349 350 353 353
351 350 351 349 349 347 346 344 344 344 342 340 338 336 336 336 333 333 334 334 335 335 336 336 336 336 336 335 334 335 334 335 336 337 339 340 342 345 346 348 349 351 353
347 350 351 348 348 346 344 344 344 342 340 338 335 335 336 334 332 331 330 331 335 335 335 335 335 334 333 332 331 331 330 330 332 335 337 338 339 342 345 346 348 350 352
349 349 350 353 348 345 344 344 343 340 338 336 334 335 334 331 329 328 331 332 334 336 335 334 334 333 330 329 329 329 326 325 324 326 332 336 337 339 342 345 346 348 350
349 350 349 350 347 346 345 344 342 339 337 335 334 334 333 330 328 330 334 334 335 335 335 335 333 331 327 327 326 326 325 321 323 324 329 332 334 337 340 343 345 346 349
343 348 349 349 349 347 346 344 341 339 336 334 333 333 332 330 328 330 334 335 335 335 334 333 331 327 327 325 324 324 322 320 321 323 328 331 333 335 338 341 344 344 348
336 343 349 350 350 348 346 343 340 338 336 334 333 332 329 328 329 332 333 335 334 333 332 330 328 327 326 324 324 323 321 321 321 322 327 332 334 335 338 341 341 343 344
335 336 345 348 348 347 344 340 338 336 335 334 333 331 328 329 332 334 335 334 333 332 331 328 327 326 325 324 324 322 321 320 320 319 329 332 335 337 340 341 342 343 344
339 339 341 347 347 345 342 338 337 335 334 333 333 330 328 332 334 333 334 334 331 330 328 326 327 326 326 324 323 322 317 316 317 321 331 336 336 338 339 341 342 343 345
340 342 343 344 345 342 339 338 337 336 335 334 332 329 330 334 333 333 333 333 331 328 328 327 326 327 325 320 321 323 317 316 321 329 332 336 338 338 339 339 342 343 344
342 343 344 344 342 339 338 339 337 336 335 334 331 330 331 333 332 331 333 332 330 329 327 326 325 326 324 320 319 323 315 323 326 335 338 338 338 338 337 339 342 342 342
343 343 343 341 338 339 339 339 337 336 335 334 331 331 330 331 330 331 332 331 329 328 327 325 325 323 322 321 319 324 325 324 326 328 330 334 336 336 337 338 339 340 340
343 342 341 338 336 339 340 340 339 337 336 334 332 334 331 330 331 331 332 331 328 327 324 323 324 323 319 323 323 324 325 326 323 322 322 325 326 326 326 328 330 332 333
341 340 339 337 339 340 342 341 341 339 337 335 334 334 331 331 330 329 326 325 326 327 324 325 324 322 322 321 321 324 325 326 327 323 323 323 324 324 324 324 324 324 326
339 340 339 338 338 341 342 341 340 338 337 335 333 332 328 326 327 326 325 324 327 323 323 321 322 321 321 323 321 324 324 324 326 327 324 324 326 325 324 324 323 323 323
330 336 339 339 339 340 342 340 335 331 333 332 331 330 326 325 324 325 327 325 324 320 319 317 317 319 319 322 321 322 322 323 325 326 327 327 326 325 323 324 325 326 325
Wind_Speed
17 20 19 18 17 16 15 15 14 13 13 13 13 13 13 14 13 12 13 13 15 17 19 20 22 22 21 21 21 18 17 20 20 18 15 20 19 23 23 22 22 23 24
18 19 20 19 18 17 15 15 15 14 16 13 14 11 11 11 9 11 11 12 15 17 20 22 25 25 21 23 28 23 23 23 22 18 13 5 16 28 27 25 22 23 23
18 17 20 20 18 17 16 15 14 14 14 14 11 10 9 11 10 12 12 12 14 17 19 20 24 24 22 24 28 28 27 22 22 24 17 5 8 14 17 21 21 18 20
17 17 20 21 20 19 17 15 14 14 13 13 13 12 12 11 11 10 10 12 14 17 19 20 20 21 21 22 24 26 30 27 26 30 23 27 22 11 11 19 16 19 19
20 19 21 22 20 19 18 16 14 13 12 13 13 10 12 11 8 8 11 13 18 18 16 21 18 18 18 22 23 24 26 26 27 28 32 24 23 24 17 12 18 20 21
20 20 24 23 22 20 18 17 15 13 12 12 10 9 7 7 9 10 13 17 19 22 22 17 18 17 17 20 22 24 24 26 27 25 26 31 19 22 18 12 17 20 22
22 21 20 24 23 22 21 19 16 14 13 11 9 7 5 4 7 10 14 14 20 21 20 18 18 19 21 24 24 25 25 26 26 26 27 28 32 34 33 26 20 13 27
19 18 19 23 25 24 21 18 18 15 13 11 8 5 2 4 8 9 11 15 16 17 18 20 19 19 20 22 23 25 27 26 26 28 28 30 31 30 38 36 26 14 16
20 20 21 25 25 24 21 20 19 16 13 10 6 3 2 4 8 10 11 14 16 18 19 19 20 20 20 21 22 24 25 27 28 29 29 30 32 32 32 34 38 27 16
19 19 19 25 24 23 21 20 18 16 12 9 5 2 3 5 7 10 12 14 16 17 18 19 19 20 22 23 23 26 26 25 28 30 30 31 33 34 34 31 34 42 31
16 17 19 23 23 22 21 19 17 15 11 7 4 2 3 5 8 11 13 15 17 18 19 19 21 22 23 24 26 28 29 30 33 34 34 36 35 33 34 34 32 32 25
14 17 19 21 20 21 19 18 16 13 10 7 4 2 2 6 9 12 14 16 18 19 20 22 24 24 24 26 27 32 34 36 39 40 39 39 36 35 36 35 34 31 28
10 14 15 18 20 20 19 18 15 13 10 7 4 2 3 7 10 13 14 16 18 20 22 24 24 25 25 27 31 32 36 39 42 44 45 42 40 39 35 34 34 31 29
10 13 14 14 19 19 19 17 16 13 10 7 4 2 5 8 11 13 16 17 19 21 23 23 24 24 27 30 34 32 33 41 44 45 45 43 42 41 38 35 35 32 28
10 13 13 12 17 18 18 18 16 12 9 6 4 3 6 9 11 13 16 17 19 21 22 23 24 25 29 31 39 42 41 40 40 40 42 42 44 44 42 36 34 32 29
10 12 12 15 18 20 19 18 15 12 8 5 4 4 7 9 11 14 16 18 19 19 21 22 24 28 30 40 43 48 43 39 38 37 38 41 40 42 43 45 43 32 28
10 13 14 16 19 21 21 20 16 11 9 6 3 4 6 8 10 14 17 17 18 19 20 21 24 26 32 42 48 50 43 37 37 38 36 34 31 33 35 36 43 43 38
12 11 13 20 22 22 22 19 15 12 9 6 4 5 6 7 10 12 13 15 17 19 20 22 22 24 33 40 46 51 40 33 36 35 33 31 29 29 28 30 30 34 32
10 10 14 19 22 24 21 18 14 11 9 7 6 5 4 6 8 12 14 14 15 18 19 21 24 27 32 42 47 59 43 32 33 27 28 27 26 25 26 25 25 24 25
6 8 14 19 22 21 20 17 14 12 10 7 5 3 3 5 8 12 14 13 16 15 18 23 20 25 31 43 56 60 45 27 24 24 21 26 24 20 19 18 21 21 21
6 10 15 19 21 19 19 16 13 12 8 6 4 3 5 6 9 11 11 12 16 17 18 15 18 22 31 42 57 64 45 26 20 17 14 16 15 16 14 13 16 16 12
9 13 16 18 18 19 18 16 13 10 9 6 5 5 7 10 11 11 12 15 15 17 16 16 19 22 30 38 51 57 53 47 25 19 14 8 3 2 7 7 12 10 10
11 14 18 17 16 18 18 16 14 12 10 7 7 8 9 10 12 11 14 17 13 6 17 18 19 21 27 31 39 47 43 39 41 41 29 36 36 37 35 24 13 5 5
10 13 15 17 17 17 17 16 14 13 10 9 9 10 10 10 11 10 11 9 11 13 14 14 14 17 21 28 37 39 40 35 29 28 34 42 43 40 35 34 36 31 25
13 14 14 18 18 18 17 15 13 14 10 7 9 10 12 14 13 14 4 5 4 6 8 8 9 12 18 24 28 33 40 37 22 15 12 25 34 30 29 27 32 31 27
13 16 18 20 19 16 16 11 8 21 9 8 15 12 11 9 12 6 10 5 6 7 9 14 17 13 14 14 20 26 31 37 37 33 29 14 16 23 23 23 21 21 20
Wind_Direction
173 172 182 180 181 186 191 197 202 204 204 209 215 227 238 241 249 250 253 256 258 258 258 257 264 261 251 261 267 253 249 253 255 239 253 265 242 249 251 250 250 252 248
171 172 179 182 189 190 198 201 208 207 209 216 231 243 243 252 250 268 279 265 264 266 263 261 266 267 269 252 263 264 258 250 250 257 232 263 266 233 239 236 238 246 249
174 179 180 187 192 196 199 204 207 208 209 224 224 239 254 262 266 265 274 281 273 277 275 271 273 273 264 255 261 261 256 255 263 252 222 227 235 256 244 232 237 240 251
181 181 184 187 195 195 195 198 202 204 208 214 229 246 268 294 304 305 304 294 284 286 277 275 276 276 277 276 269 267 266 261 247 257 244 230 261 273 278 254 226 221 228
182 185 187 187 194 191 188 187 190 197 207 209 224 230 230 260 297 303 295 285 288 272 277 276 267 269 280 280 277 272 265 262 259 252 249 257 244 243 253 261 265 241 230
184 186 186 183 189 187 188 184 182 196 203 203 209 225 259 277 296 312 311 309 313 305 300 305 311 315 294 287 285 281 277 270 265 264 257 245 247 241 230 245 254 260 260
184 185 189 187 188 187 188 185 181 189 193 195 197 203 220 268 294 311 312 319 311 309 310 323 314 302 298 298 297 290 285 281 270 262 257 256 251 241 252 234 242 246 234
179 189 185 192 189 186 186 185 178 176 172 172 174 182 223 296 302 317 314 304 302 298 309 307 303 301 297 296 294 289 287 285 274 271 264 257 255 248 244 251 255 245 259
180 185 187 191 188 187 182 185 176 172 171 174 176 192 276 312 311 316 310 305 309 303 303 302 300 301 299 297 295 290 290 288 285 277 268 262 257 254 249 248 251 282 254
186 183 187 190 190 186 186 184 177 172 171 176 181 214 293 309 316 312 307 305 301 299 298 296 295 296 297 297 294 290 288 285 283 282 278 269 262 257 256 248 241 234 259
197 189 190 189 194 186 185 182 179 172 171 181 179 237 294 318 306 303 303 301 298 299 297 296 295 294 295 297 297 293 289 286 281 274 272 269 265 260 257 256 253 249 242
204 199 193 185 194 192 184 185 181 178 172 183 192 234 312 304 303 299 300 299 298 298 295 292 289 293 295 296 298 295 291 291 286 276 269 266 264 258 254 252 252 255 255
218 210 188 189 194 195 188 185 185 184 178 188 202 240 292 294 294 297 301 302 301 299 299 297 300 299 304 303 298 294 292 291 289 285 270 263 260 257 252 247 246 244 248
230 216 195 186 194 201 190 188 192 185 185 193 205 253 287 295 299 303 303 301 300 301 295 300 301 307 310 306 298 300 300 296 287 286 278 267 260 257 252 246 241 239 237
234 227 203 187 197 201 191 195 192 187 188 190 214 266 285 292 300 305 308 304 304 302 309 308 304 310 313 307 315 306 300 294 285 287 273 269 263 255 252 245 239 232 232
249 238 212 197 202 202 197 197 192 190 186 197 227 275 284 297 299 302 308 308 309 315 311 314 311 319 313 319 316 308 300 291 286 281 274 263 262 255 253 247 240 232 224
254 232 224 205 200 201 200 197 192 182 185 196 227 264 287 292 300 308 310 315 316 314 317 318 315 322 321 321 323 312 304 295 286 279 270 263 260 254 248 243 240 237 233
288 252 209 202 198 199 197 196 185 184 187 197 232 259 273 301 314 314 313 311 316 320 324 317 325 322 327 331 329 324 315 295 284 278 263 258 256 252 241 236 230 226 228
285 260 213 196 192 194 189 187 186 186 192 210 236 247 279 309 321 317 312 314 318 316 321 330 326 334 333 336 336 343 327 301 290 280 259 252 248 252 245 233 223 219 217
260 212 201 193 185 189 186 188 190 194 205 216 229 243 277 300 315 311 312 306 308 311 332 325 352 346 342 350 350 339 334 303 293 288 264 255 256 256 254 230 219 211 214
228 200 189 190 184 188 188 193 195 204 208 212 216 239 262 278 293 293 306 306 300 307 317 335 356 358 355 352 356 343 341 328 296 305 284 275 261 253 251 241 219 224 237
232 204 199 199 181 190 195 198 204 201 200 207 220 240 252 259 281 290 299 302 298 292 316 357 356 354 359 3 2 356 11 22 21 26 47 46 71 117 204 218 223 245 259
239 214 214 203 197 198 202 204 203 197 199 205 220 245 252 258 265 279 283 280 298 310 345 352 349 359 5 355 3 1 12 19 38 36 47 74 70 70 70 71 60 14 297
261 237 230 219 211 206 211 216 201 197 194 209 225 242 244 242 255 271 286 311 332 3 345 346 345 352 358 358 2 8 10 15 32 44 46 65 68 65 62 60 63 56 56
299 285 245 239 240 211 209 221 214 199 187 224 249 245 248 237 249 247 305 327 45 24 0 2 356 353 353 352 359 9 11 19 19 33 44 68 65 62 62 63 61 59 54
300 290 269 259 251 235 205 174 94 350 9 314 258 250 269 284 255 253 140 151 126 80 61 59 54 38 6 4 6 13 26 21 23 22 31 42 83 87 73 67 67 65 65